Theta_e
310 311 310 312 318 325 326 324 320 322 322 317 318 318 321 324 324 323 324 323 323 324 325 324 325 325 322 324 322 333 347 349 348 347 348 350 349 350 351 350 350 348 345 342 341 339 338 337 334 332 329 331 334 336 337 338 340 340 339 338 337 337 336 334 333 332 330 328 327 324 318 315 314 315 315 314 312 311 311 310 310 310 310 310 310 309 309 309 309 309 309 310 310 311 313 314 315
311 315 313 316 323 325 325 325 319 319 319 316 317 319 321 324 323 322 323 323 323 323 323 323 322 323 322 324 322 330 347 349 348 349 350 350 350 351 350 349 349 348 345 341 340 339 338 336 334 331 328 330 333 336 337 338 340 340 339 339 338 337 336 335 334 334 334 333 332 329 324 318 315 314 314 313 312 311 311 310 310 311 310 310 310 310 309 308 309 309 309 309 310 311 312 314 315
313 321 322 321 324 323 324 325 319 316 316 314 317 322 323 323 322 322 323 322 323 322 322 323 322 323 323 325 328 335 344 348 348 349 349 349 352 352 350 349 348 349 345 340 339 338 338 336 333 329 327 328 332 336 336 337 339 340 340 339 338 337 337 336 335 335 335 335 334 333 329 324 318 315 314 314 315 312 311 311 310 311 311 310 310 311 310 309 309 309 309 309 309 310 311 313 314
313 322 325 322 320 322 323 323 321 316 313 313 315 322 324 322 322 321 322 322 322 321 322 322 323 326 328 333 338 342 344 344 346 348 349 350 350 351 351 349 348 348 343 339 339 339 338 337 333 328 326 327 330 334 335 337 339 340 340 340 339 338 337 336 336 335 335 336 335 334 332 329 323 316 314 315 316 314 311 311 311 312 311 310 310 312 312 310 310 309 309 309 309 310 310 311 313
313 321 324 322 320 322 322 321 322 317 314 315 316 320 323 321 322 321 321 322 321 322 321 322 323 326 335 342 344 345 345 344 346 349 350 351 351 351 351 349 348 347 342 339 339 338 338 337 332 326 324 326 328 332 334 336 339 340 340 341 340 339 338 337 336 336 336 336 336 335 333 332 327 321 316 314 316 314 311 311 313 313 311 310 310 313 314 313 312 310 309 309 309 309 310 310 311
315 321 322 321 322 324 324 321 318 316 317 319 319 320 322 321 322 321 322 323 323 323 322 323 322 330 344 346 345 345 346 346 346 349 351 352 352 351 351 349 348 346 343 342 339 338 338 337 330 324 323 324 326 330 332 335 338 340 340 341 340 339 338 337 336 336 336 336 335 335 333 331 328 323 318 315 315 314 312 312 316 315 312 312 311 313 315 315 314 312 310 309 309 310 310 310 310
317 322 321 319 322 324 323 320 318 318 320 322 321 321 321 320 321 321 323 323 323 325 323 323 323 334 346 347 347 346 346 347 348 349 351 352 353 352 350 349 347 346 344 344 342 338 338 334 326 323 322 323 325 328 331 333 337 338 339 340 340 339 338 337 336 336 336 336 335 334 332 329 328 328 324 319 316 315 313 312 317 317 316 317 317 318 317 316 316 314 312 311 310 310 310 310 311
319 321 321 319 319 321 320 318 319 319 321 323 322 321 320 320 322 321 322 322 323 326 323 325 326 330 343 348 350 348 346 348 349 349 351 352 353 351 350 348 346 345 345 345 344 339 337 330 323 324 324 324 325 326 329 330 334 336 337 340 340 339 339 337 336 336 336 335 334 332 331 330 333 335 332 326 320 316 314 314 318 320 320 322 326 325 318 316 316 314 314 312 311 311 310 310 311
319 320 322 320 318 319 318 317 318 320 322 323 322 321 321 321 322 320 321 322 324 326 323 326 326 332 344 349 350 349 348 349 350 350 353 353 353 351 350 348 346 346 345 346 345 340 333 325 323 326 325 325 326 327 327 328 330 333 335 338 339 339 338 338 337 336 335 334 333 331 332 334 336 337 334 330 323 318 317 316 320 322 322 325 329 328 319 316 316 316 314 313 313 311 311 311 312
319 320 322 322 320 316 316 318 319 320 322 321 321 321 321 321 321 321 321 322 325 328 326 327 324 335 347 350 350 350 348 349 351 352 353 353 354 351 349 348 346 346 345 346 345 338 330 322 323 327 326 328 328 328 328 327 328 329 332 336 338 338 338 337 337 335 334 332 332 333 336 337 337 336 331 326 322 319 319 318 324 326 325 328 331 326 319 317 316 316 315 313 313 313 312 312 313
319 320 321 321 319 315 314 317 320 321 322 321 321 321 321 321 321 321 321 322 325 328 329 326 322 337 349 351 352 350 349 349 352 353 353 353 353 351 349 348 347 347 346 346 344 337 327 322 325 327 327 329 329 328 328 327 327 326 329 334 337 337 337 337 335 333 332 332 334 337 338 338 337 335 329 324 320 319 320 321 328 328 327 330 329 323 320 319 316 315 315 313 313 313 313 312 314
319 320 319 318 316 316 317 317 320 322 322 320 321 321 321 320 321 321 322 325 326 328 328 325 323 339 349 351 351 350 349 350 352 353 353 353 351 349 348 347 347 347 346 346 343 336 328 324 328 330 329 329 329 329 329 328 326 325 327 332 334 336 336 335 333 332 333 336 338 339 339 338 336 333 327 325 322 320 321 323 328 327 327 330 325 322 322 320 317 315 315 315 314 314 314 313 314
319 320 320 317 317 318 318 318 320 321 321 320 320 321 320 320 321 321 322 324 326 329 328 327 329 342 349 350 351 350 350 351 352 353 353 351 348 347 346 346 346 348 347 345 341 336 331 326 329 332 331 329 330 330 329 329 326 324 326 329 331 333 333 332 331 333 336 338 339 338 338 337 334 329 326 327 325 322 321 323 327 325 327 328 324 323 324 321 319 318 317 317 316 316 315 314 314
319 321 320 319 319 319 318 318 319 319 319 320 321 321 321 321 321 321 321 322 324 329 331 333 333 343 350 350 351 351 351 351 352 352 350 349 347 346 345 346 347 348 346 342 338 334 330 327 329 332 331 331 331 331 331 329 325 324 326 329 330 330 330 330 332 335 338 339 339 336 336 336 332 327 325 327 326 322 320 322 325 325 327 326 322 324 325 322 322 322 321 319 320 319 318 317 317
319 319 320 319 318 318 318 318 319 318 318 320 321 320 321 321 321 321 321 321 326 332 333 334 333 340 347 347 349 351 352 350 351 350 348 347 346 343 345 347 348 347 344 341 335 330 329 330 331 330 329 332 334 333 333 330 327 326 327 328 328 328 330 332 334 336 338 338 336 333 334 333 330 328 327 326 326 323 319 322 325 326 327 325 322 325 326 325 324 325 325 323 323 322 322 321 320
318 319 319 318 317 316 318 319 319 317 318 321 321 320 321 321 321 321 322 321 323 331 331 333 336 339 341 341 346 351 351 350 351 350 347 347 345 344 347 348 347 346 345 342 335 332 335 334 331 329 328 332 334 334 332 330 328 327 326 327 328 330 332 333 334 335 336 334 331 331 332 331 329 331 330 329 329 325 320 321 326 327 327 325 322 324 326 326 325 326 325 325 324 324 325 324 324
317 318 318 317 316 316 318 320 319 318 319 321 321 321 320 320 321 320 321 321 321 328 330 335 340 341 342 340 346 351 350 349 351 350 348 347 346 346 347 348 347 346 345 343 340 338 339 338 333 330 329 332 334 334 332 331 329 327 326 326 328 331 332 332 332 333 332 331 329 329 329 328 330 331 331 331 331 330 325 322 323 325 327 325 322 324 326 326 326 326 325 325 325 324 325 325 326
317 318 316 316 317 317 319 319 318 320 320 320 320 320 320 319 321 321 321 321 322 326 330 338 342 344 345 345 348 351 350 349 350 350 349 348 347 346 346 348 347 346 345 344 343 341 340 340 337 333 332 333 333 333 333 332 329 326 326 326 328 331 331 331 331 331 330 330 329 327 327 329 330 331 331 332 331 332 331 327 323 321 322 322 321 322 325 326 326 326 326 325 325 324 324 324 325
318 318 316 316 318 320 320 320 319 320 319 320 320 320 320 319 320 320 320 320 324 325 327 340 342 343 345 348 349 349 349 349 350 349 348 347 346 346 346 347 347 346 345 343 343 342 340 340 338 335 335 335 333 334 334 331 328 327 327 326 328 330 330 330 331 330 331 331 328 326 329 331 331 332 331 332 331 332 332 330 328 323 320 319 319 321 323 326 326 325 326 325 325 324 323 324 324
317 317 316 317 319 320 320 320 320 319 319 319 319 319 319 319 320 320 320 321 323 321 326 341 342 342 344 346 349 349 349 350 349 349 348 347 345 345 346 346 345 345 344 344 343 341 340 340 339 338 337 336 334 334 334 332 331 330 326 326 328 328 328 330 330 331 331 330 327 327 330 332 332 333 332 332 332 331 331 330 331 328 323 320 319 320 321 325 327 326 325 325 325 323 324 328 327
317 317 317 318 320 319 320 320 319 319 319 318 319 318 318 319 319 319 320 320 320 326 337 343 343 344 345 345 349 349 349 350 350 349 349 348 346 345 346 346 344 343 344 343 343 341 340 339 339 339 338 336 335 335 335 333 333 332 328 327 327 327 328 329 330 331 331 330 328 328 330 332 332 332 332 332 331 330 330 330 331 331 328 325 322 320 320 323 325 326 325 324 324 323 327 332 332
317 317 318 318 319 319 319 320 319 319 318 318 318 318 318 319 320 319 320 319 320 335 343 344 343 344 346 346 348 349 350 350 350 349 349 348 347 346 347 346 345 344 344 343 342 342 341 339 338 338 337 337 336 336 335 334 334 333 330 329 328 329 328 330 332 331 331 331 330 330 331 332 332 332 332 330 330 332 332 331 332 332 332 328 324 322 319 319 321 323 323 324 325 323 326 330 333
317 317 318 318 318 318 319 320 319 319 318 318 318 318 318 318 320 319 319 320 319 331 338 342 343 342 345 348 348 349 350 350 350 350 349 349 347 347 348 347 346 345 345 343 342 343 343 340 338 338 338 338 337 336 336 334 334 333 333 332 331 331 330 331 333 332 332 332 330 331 332 332 331 331 331 330 331 333 332 333 333 334 334 330 327 326 323 319 318 320 321 322 324 325 326 327 330
316 317 318 318 318 319 319 319 319 319 317 318 318 318 319 318 319 319 319 320 319 327 335 338 341 341 344 348 349 349 350 350 350 350 349 350 348 348 348 347 346 345 345 344 342 342 342 340 338 338 338 338 337 336 336 335 335 334 336 335 334 333 332 333 334 333 333 333 331 332 333 332 330 327 326 329 333 334 334 334 335 335 334 331 330 330 329 324 318 320 321 321 325 329 331 329 329
317 316 318 318 319 319 319 318 318 318 318 317 318 317 318 318 318 318 318 320 319 325 334 337 339 340 344 347 349 349 349 350 350 349 349 349 349 349 348 347 346 346 345 345 344 343 342 340 338 337 339 339 337 336 336 336 335 335 336 336 336 335 333 334 334 334 333 333 332 332 333 332 330 325 322 328 333 334 334 334 334 333 333 332 331 332 331 326 321 322 324 324 329 332 333 332 331
317 317 318 318 318 318 318 318 318 318 318 317 318 317 318 318 317 318 318 319 319 323 331 336 337 337 342 346 348 349 349 350 349 349 350 349 349 349 348 347 346 346 346 346 345 343 341 340 338 338 339 338 337 337 337 337 336 335 336 336 336 335 333 334 334 333 333 333 332 332 332 331 330 327 322 327 332 333 333 333 333 332 333 332 332 332 329 327 327 329 329 328 330 330 330 331 331
318 318 318 318 317 318 318 318 318 318 318 318 318 317 318 318 317 317 318 318 319 322 326 332 335 335 339 344 346 348 349 349 349 349 349 348 348 348 348 347 346 346 346 346 344 342 341 339 338 339 338 338 337 336 337 338 337 336 336 336 335 335 334 334 334 333 333 333 332 332 332 329 329 328 326 329 332 333 334 334 333 333 334 332 331 331 327 328 331 330 331 332 331 330 330 330 329
318 317 317 318 318 318 318 318 318 318 318 318 318 317 317 318 317 317 318 318 320 322 326 333 336 335 337 343 345 347 348 348 348 348 347 347 347 346 347 347 346 346 345 345 344 342 341 339 338 338 337 337 336 336 336 337 337 336 336 335 335 335 334 334 334 333 332 333 332 332 332 330 328 328 330 331 331 332 334 335 335 334 334 331 328 328 326 328 331 330 330 332 331 332 332 332 330
317 317 316 316 317 317 317 317 318 318 318 318 317 316 316 317 317 318 318 318 321 322 329 337 337 336 337 341 344 344 345 346 346 346 346 345 345 345 345 345 345 345 345 344 344 342 341 339 338 338 337 336 335 335 337 337 336 335 336 334 334 335 333 333 333 333 332 331 331 332 331 331 330 330 331 331 331 332 334 334 334 334 332 331 330 329 329 331 331 330 330 329 331 332 333 333 333
316 317 316 315 315 315 317 318 317 317 317 318 317 314 314 317 317 318 318 318 323 322 330 337 336 337 339 341 342 342 343 343 344 344 345 345 344 344 344 345 343 344 342 339 341 342 340 339 338 337 337 336 336 336 337 337 336 336 335 334 333 333 332 331 332 332 332 330 331 331 330 331 331 331 330 330 331 333 333 333 332 331 331 332 333 332 332 332 331 330 328 328 329 331 333 334 333
316 316 315 315 313 314 317 318 317 317 317 319 317 312 313 317 317 318 318 318 322 322 327 333 334 336 339 340 342 342 343 343 343 343 344 345 344 343 344 344 342 341 339 334 338 342 339 338 336 336 337 337 336 337 337 336 336 336 335 334 333 332 331 329 330 331 331 330 331 331 330 331 331 331 330 329 332 332 331 331 329 329 330 331 333 332 331 332 331 330 329 329 330 330 333 333 332
316 314 313 315 313 314 318 319 318 317 317 319 316 313 314 317 318 319 319 318 321 323 322 330 334 335 336 338 341 341 342 344 344 343 344 344 343 342 343 343 340 339 338 336 339 341 339 338 336 336 338 337 336 337 336 335 336 337 335 335 334 332 330 329 330 330 330 330 331 331 331 331 332 332 330 328 332 333 330 330 329 330 330 330 332 331 330 332 332 331 331 332 331 331 334 333 332
316 315 312 314 314 314 317 318 318 318 317 318 316 315 315 317 319 319 319 319 321 323 321 329 335 335 334 335 338 339 340 341 342 343 344 344 343 341 342 343 340 338 338 338 339 339 338 337 336 337 337 337 336 337 337 335 336 337 335 335 334 332 331 330 330 330 329 328 329 330 331 331 332 332 330 327 331 333 331 330 330 330 329 330 331 330 330 333 332 331 333 333 331 332 333 333 333
315 316 314 314 315 315 315 316 319 319 317 318 317 316 316 317 319 319 319 320 320 321 321 330 337 336 334 334 335 337 338 338 338 341 343 343 342 340 341 343 339 339 339 339 339 338 336 335 335 336 336 337 337 336 336 336 336 337 336 334 333 333 332 331 331 330 330 329 329 329 330 331 333 332 331 330 330 332 331 330 331 330 328 329 330 329 331 334 333 331 332 331 331 332 333 333 332
314 315 314 314 315 315 316 316 318 319 317 317 317 316 317 317 319 319 319 319 320 320 320 330 337 334 332 333 333 334 335 336 336 338 341 341 340 339 340 342 340 340 340 340 339 336 335 334 334 336 336 336 336 336 336 337 336 336 336 335 333 332 331 331 331 331 331 330 330 330 331 332 333 333 333 331 330 332 332 330 329 328 327 328 328 329 332 334 332 330 330 330 331 332 333 333 332
316 317 316 315 315 315 317 318 318 319 317 317 317 316 317 317 318 319 320 319 320 321 320 327 335 333 330 332 333 332 333 335 336 337 339 338 337 338 340 342 341 340 339 340 339 336 334 334 333 335 336 334 335 337 337 337 336 336 336 335 334 332 331 331 331 330 331 331 331 332 333 332 332 333 332 329 330 331 331 330 328 326 328 329 329 331 333 333 331 330 330 330 330 331 332 332 332
317 318 317 316 315 316 318 319 318 319 317 317 317 316 317 317 318 319 319 320 319 320 321 322 329 334 333 333 332 332 332 334 335 336 338 337 336 337 339 342 341 339 338 337 337 336 335 334 334 335 336 336 337 338 337 336 336 335 335 335 334 333 331 331 332 330 329 331 331 333 334 332 330 332 331 330 331 331 330 331 330 328 329 330 330 332 333 332 331 330 330 330 329 331 333 332 332
318 317 316 317 316 316 319 319 318 318 317 317 318 317 317 317 318 319 319 319 319 319 322 321 322 330 333 332 331 332 330 332 334 336 337 339 338 338 340 341 341 339 339 336 333 334 335 334 335 337 336 337 338 337 337 337 336 335 335 334 333 333 332 332 332 330 329 331 331 332 334 332 329 330 332 332 331 330 331 331 330 329 330 331 331 332 333 333 331 330 329 330 329 330 332 332 332
317 317 317 316 317 317 318 319 318 318 317 317 318 317 317 318 318 319 318 319 319 319 320 321 321 323 327 328 330 332 331 332 336 336 337 338 338 339 340 341 340 339 339 337 332 331 335 335 335 337 337 337 337 336 337 336 336 335 334 333 333 333 333 332 331 329 330 332 331 331 333 333 331 330 331 332 332 331 332 332 330 330 330 331 331 330 331 331 331 330 329 330 329 330 332 331 331
317 317 317 316 317 316 314 317 319 318 318 318 318 317 317 318 318 319 319 319 319 319 319 320 320 320 323 323 327 332 333 334 337 337 338 338 336 337 341 341 341 340 338 339 335 331 335 337 337 338 337 337 336 336 336 335 335 335 334 333 333 333 333 332 331 330 331 332 331 330 331 332 332 331 330 330 331 331 332 332 331 331 330 330 330 329 330 330 330 329 329 330 330 331 332 331 330
319 319 318 317 317 316 314 317 318 318 319 319 318 316 316 317 318 318 319 320 319 319 319 320 320 320 322 320 324 332 333 333 334 335 337 339 337 337 340 340 337 339 340 339 337 334 337 339 338 338 337 336 336 336 335 335 335 335 334 334 333 332 333 333 332 332 332 331 330 328 329 330 331 332 332 331 331 332 332 332 331 331 330 330 330 329 329 330 329 329 329 330 331 332 332 331 329
318 319 319 317 317 317 316 318 318 316 315 318 318 314 314 316 317 317 318 319 319 319 318 319 319 319 321 319 325 334 333 333 333 331 334 339 339 338 340 337 330 335 340 340 338 337 339 339 337 336 336 335 335 336 336 335 335 333 333 334 333 332 333 333 333 331 330 329 328 327 326 328 329 331 332 332 332 332 332 331 331 331 330 330 329 329 329 330 329 329 330 329 330 331 331 330 329
315 317 318 317 316 316 317 317 316 313 313 318 318 314 313 315 317 318 319 318 318 319 318 319 319 319 321 319 324 333 334 333 331 329 332 336 338 338 338 335 327 332 340 340 338 338 338 337 334 333 332 332 335 336 335 334 334 332 331 332 332 332 332 332 331 331 329 327 327 327 325 326 329 330 331 333 333 332 331 331 331 331 330 330 329 329 329 330 330 330 330 329 330 330 330 330 330
314 317 317 317 317 316 316 316 315 315 315 317 317 315 313 313 316 319 320 319 318 320 319 319 319 319 321 319 319 328 334 334 331 330 331 331 334 335 335 334 328 331 339 339 337 337 336 333 330 329 329 330 331 332 331 333 333 331 329 329 330 332 332 331 331 330 328 325 325 326 325 326 328 329 331 333 332 332 331 331 330 330 330 330 329 329 330 330 330 331 330 330 330 330 329 330 330
315 317 317 317 318 317 317 316 315 316 316 314 315 315 313 312 316 319 318 318 318 318 320 321 321 320 321 322 320 324 333 335 332 330 330 329 329 327 330 333 329 332 339 338 335 334 332 329 327 329 330 330 330 329 330 333 332 331 330 328 328 331 331 331 330 328 326 324 324 326 327 328 328 329 331 333 332 331 331 330 330 330 330 330 330 330 330 330 330 330 329 329 329 329 328 329 330
316 317 317 316 318 317 318 317 315 315 314 313 313 314 313 311 315 318 318 321 323 322 324 326 326 326 326 327 325 326 332 334 333 332 330 329 328 327 331 331 330 336 340 337 334 334 330 328 328 330 330 331 331 330 330 333 333 332 331 329 330 331 330 330 329 327 325 325 327 329 330 330 330 331 332 332 332 331 329 329 329 330 330 330 331 332 330 330 329 328 328 329 328 327 327 328 329
317 317 316 316 317 317 317 316 314 314 314 313 313 314 313 312 315 320 321 326 328 327 327 327 328 329 327 326 325 324 329 333 334 335 334 333 333 334 334 332 334 340 339 335 335 334 331 331 330 331 330 331 332 331 331 332 333 333 331 331 331 330 330 329 328 328 327 326 329 331 331 331 331 331 331 331 332 331 328 328 329 330 331 331 331 332 331 330 329 328 327 328 328 327 326 327 328
317 317 315 315 315 315 315 314 314 313 313 313 313 314 313 311 316 324 326 327 329 328 328 327 328 327 325 326 325 325 329 333 334 335 336 337 337 337 336 336 337 337 335 334 335 333 332 332 330 329 328 330 332 333 333 333 334 333 332 332 331 329 328 328 328 329 327 327 329 331 331 332 331 331 331 330 330 330 328 328 329 329 330 330 330 330 330 330 330 328 327 327 328 327 327 327 327
317 316 315 314 313 314 313 313 313 313 313 313 313 314 314 315 320 326 327 327 328 329 328 329 329 327 327 328 326 329 336 337 334 334 335 337 337 336 335 337 336 332 332 333 333 330 330 330 328 328 328 329 332 333 333 333 334 333 332 332 331 330 329 328 329 328 326 328 330 331 331 331 331 330 329 328 328 329 328 326 328 328 326 327 327 327 329 330 329 329 328 328 327 327 328 327 326
316 314 314 313 313 313 314 313 313 313 313 314 315 314 314 320 326 326 327 328 328 329 330 331 332 331 332 333 330 333 337 337 335 333 334 335 335 335 334 335 334 332 332 332 330 329 330 328 327 327 328 329 330 332 333 333 334 333 331 330 331 331 329 327 327 325 325 329 330 330 330 329 330 329 329 329 327 327 328 326 327 328 327 327 326 324 327 329 329 329 328 328 328 328 327 326 326
316 315 315 314 313 313 313 312 313 315 316 316 317 315 315 322 327 326 327 328 328 329 330 332 332 332 334 333 333 335 334 334 334 333 332 332 333 333 332 332 332 332 332 332 331 330 329 328 328 327 328 330 331 331 331 332 334 332 331 331 332 331 328 326 326 324 324 328 329 329 329 328 329 327 328 330 327 327 329 327 328 328 328 328 325 321 322 324 327 329 329 328 328 328 327 326 326
317 316 315 314 314 314 313 313 315 316 317 317 316 316 321 326 327 326 327 326 326 328 329 331 331 332 333 334 334 334 333 332 332 332 332 332 332 331 331 332 332 331 331 332 333 331 330 330 329 329 330 331 332 332 330 332 333 332 331 332 332 329 326 325 325 324 326 327 328 328 328 328 327 325 326 326 325 327 327 325 326 325 324 326 325 321 319 320 322 326 328 328 328 329 327 325 325
316 316 314 315 316 315 313 313 315 316 316 317 315 316 324 328 327 326 326 325 326 327 329 331 332 333 334 335 334 333 332 329 328 330 330 330 331 330 330 332 331 329 328 331 332 331 331 331 331 332 333 332 332 332 332 332 334 332 332 333 330 326 325 324 324 325 326 327 327 327 328 328 327 326 324 322 323 325 324 323 324 321 321 325 323 321 322 320 319 322 324 325 327 328 327 326 325
315 314 315 316 316 315 314 313 315 316 316 316 315 316 322 326 327 328 328 328 328 327 328 331 332 333 333 334 334 332 331 329 329 330 329 328 329 329 329 330 330 329 330 331 331 331 332 332 332 333 333 334 332 331 332 333 333 332 332 331 327 323 324 323 323 325 324 325 326 327 328 328 327 327 326 324 325 325 323 325 325 319 318 320 320 323 325 321 320 320 321 322 323 324 326 327 326
315 316 317 316 314 313 313 313 314 316 316 317 315 315 322 326 326 328 329 329 330 328 329 330 330 331 331 332 332 330 329 329 329 330 329 330 330 329 329 330 330 331 333 333 333 333 332 332 333 333 333 334 332 331 332 333 333 332 331 329 325 323 323 323 324 324 322 323 325 326 327 327 327 328 327 326 327 325 323 326 324 318 315 317 320 325 325 324 323 320 319 320 319 321 325 326 327
315 316 317 317 315 315 314 314 314 314 316 318 315 316 325 326 326 327 329 328 329 329 329 328 328 328 327 328 329 328 328 328 329 329 330 331 330 329 330 330 331 332 334 334 335 333 332 332 332 332 332 332 332 331 331 333 333 331 329 328 326 324 324 325 325 324 323 325 326 326 327 327 327 328 326 326 326 325 324 325 323 317 314 316 320 325 325 325 323 320 322 323 320 322 324 325 327
315 314 314 316 316 316 316 317 315 313 315 317 316 319 326 326 325 326 328 328 328 328 328 328 328 327 326 327 328 329 329 328 329 330 330 330 330 329 329 330 332 333 333 334 334 333 333 332 332 332 330 330 331 331 331 332 332 330 328 328 326 324 326 327 326 324 325 327 326 326 326 327 327 327 325 325 326 325 324 325 322 318 315 316 321 325 325 323 322 324 325 323 322 324 326 325 327
316 314 313 315 316 315 315 316 317 315 315 317 318 322 327 326 324 326 328 328 328 328 328 329 329 328 327 327 327 327 328 328 328 329 330 329 329 328 329 330 331 332 333 333 333 333 333 332 332 332 330 328 329 330 331 332 331 330 328 326 325 326 328 328 327 326 326 327 327 326 325 326 327 325 324 325 326 325 325 325 324 321 320 320 322 324 323 322 324 325 324 322 323 325 326 326 326
Wind_Speed
3 3 4 6 4 2 7 10 6 4 6 7 8 9 11 9 5 2 3 4 2 4 8 5 4 4 5 7 10 8 19 14 9 6 5 9 11 11 15 16 17 14 18 26 24 23 22 21 20 19 20 21 22 22 22 21 21 20 19 18 18 17 16 16 16 15 14 13 13 12 12 12 12 13 14 13 14 14 14 17 17 18 19 19 19 18 18 18 19 20 20 19 19 18 19 20 21
6 2 2 2 3 5 9 10 5 4 7 7 9 11 8 2 2 5 2 5 6 7 6 4 5 5 6 6 9 1 17 19 15 14 13 13 14 13 18 20 17 12 17 26 25 24 23 21 20 19 21 21 22 22 22 21 20 20 18 18 17 17 16 16 15 15 14 13 12 12 12 11 11 12 13 13 13 14 14 17 18 18 19 19 19 18 18 18 19 20 21 20 19 19 19 20 21
7 4 5 4 7 10 9 7 6 6 7 8 8 6 5 3 2 3 8 8 8 6 3 3 6 6 7 6 3 4 13 16 16 15 14 13 14 17 18 19 16 11 17 27 25 24 23 22 21 19 20 21 22 22 21 20 20 19 18 18 17 17 16 16 15 15 14 13 12 11 12 11 10 10 11 11 12 14 16 17 17 18 18 19 18 17 17 18 19 20 20 20 20 19 19 20 21
7 10 8 9 9 10 7 5 6 7 7 8 7 2 4 3 9 8 7 8 6 5 4 6 5 2 5 2 6 10 12 12 13 11 12 9 13 19 18 18 17 12 19 27 24 24 23 22 21 19 20 20 21 21 21 20 19 19 18 18 17 17 16 16 15 15 14 13 12 11 11 10 9 9 10 10 11 13 16 17 17 18 19 18 17 16 16 17 18 19 20 20 20 20 20 20 21
7 8 6 11 8 6 5 5 6 7 8 8 6 5 8 7 11 7 4 4 4 5 6 6 4 4 2 9 10 7 8 10 11 10 11 9 13 22 21 20 17 13 20 25 24 24 22 22 20 19 20 19 20 20 20 19 19 18 18 18 16 16 16 16 15 15 14 12 11 10 10 10 9 9 9 10 10 13 15 16 16 17 18 17 16 15 15 16 18 19 19 19 20 21 21 21 21
8 3 7 11 10 8 5 6 6 8 10 11 8 4 8 8 10 5 2 2 1 4 6 6 8 3 10 14 15 11 7 6 7 8 11 13 17 22 21 20 17 15 19 20 21 23 21 21 20 19 20 19 20 19 19 19 18 18 17 17 16 16 16 15 15 14 13 12 11 10 10 10 9 9 9 9 10 12 13 14 15 17 17 16 16 15 15 16 17 18 19 19 20 22 22 23 22
5 4 8 10 10 8 6 7 7 9 9 12 10 4 9 7 6 2 3 2 2 2 6 6 8 1 10 11 13 12 8 6 7 8 10 16 20 19 18 18 18 18 19 16 16 21 21 20 20 20 20 19 19 19 19 18 18 17 16 17 16 16 16 15 15 14 13 12 12 11 11 10 10 8 8 9 9 11 13 13 14 16 16 15 15 14 15 15 16 18 19 19 20 21 22 23 23
7 9 9 7 6 6 7 7 8 9 6 8 6 8 8 4 4 1 4 2 1 1 5 4 6 3 7 15 11 8 9 7 9 10 11 16 20 19 18 17 19 19 19 17 13 18 21 19 20 20 20 19 19 19 18 17 17 16 16 16 16 16 16 15 14 14 13 12 12 12 11 10 10 9 9 8 9 12 13 14 13 14 15 14 14 13 15 16 17 18 19 19 19 20 21 22 23
11 11 9 7 6 6 7 8 9 10 9 5 3 10 6 3 3 3 4 5 4 4 6 5 5 4 11 18 14 10 10 8 11 13 14 17 20 20 18 17 20 20 18 15 11 17 21 19 20 20 19 19 18 18 17 16 16 15 16 16 16 16 15 14 14 13 13 13 12 12 11 10 11 11 10 8 9 10 12 13 12 13 14 13 13 13 16 17 17 18 18 18 19 19 20 21 23
11 12 9 6 6 7 7 9 7 10 11 3 7 8 5 4 3 4 5 8 5 4 6 3 5 7 17 15 13 10 9 11 13 15 17 18 18 20 19 17 20 20 19 14 10 18 21 20 20 19 19 19 18 17 16 15 15 14 15 15 15 15 15 14 14 13 12 13 12 11 11 12 12 12 10 8 7 7 10 13 13 13 13 13 12 14 17 17 17 18 18 18 18 18 19 20 21
9 11 9 6 6 7 7 8 8 10 8 5 5 6 4 3 3 5 5 8 6 6 4 2 5 11 19 11 12 9 9 14 14 15 18 18 16 18 19 19 20 18 19 14 13 21 22 21 20 19 19 18 17 16 15 14 13 13 14 15 15 15 15 14 14 13 12 12 11 12 13 13 11 11 10 8 8 6 9 13 13 13 13 12 13 15 17 17 17 18 18 18 18 18 18 19 20
8 8 8 6 6 7 8 8 9 7 5 5 1 8 5 1 1 5 4 6 8 6 5 5 5 14 14 8 11 10 12 14 14 15 18 17 15 17 17 18 17 14 16 13 16 23 21 22 20 17 18 17 16 15 14 13 12 13 13 15 15 15 15 14 13 12 12 12 12 12 12 12 10 9 9 8 7 7 10 13 13 13 14 13 14 15 17 17 17 17 18 18 18 17 17 18 18
9 7 6 6 6 7 9 9 9 6 1 3 4 10 5 2 1 4 6 7 8 5 2 2 4 15 12 9 10 9 13 14 14 15 17 16 14 16 15 14 14 12 13 14 20 23 20 22 20 17 16 15 15 14 13 12 11 12 13 14 14 14 14 13 13 12 13 14 13 12 11 11 10 8 8 7 7 7 10 14 13 13 14 13 14 16 17 17 17 16 16 17 17 16 15 15 17
11 10 7 6 7 8 9 9 8 7 1 8 9 7 3 1 2 4 7 9 9 4 5 6 8 13 12 10 8 10 13 14 14 16 15 14 13 14 14 14 15 14 13 15 21 21 20 21 19 18 15 14 13 11 11 11 11 12 13 14 14 14 14 14 14 14 14 14 13 11 11 10 9 8 7 6 6 7 11 14 14 14 14 13 14 16 17 17 16 16 15 15 15 15 14 13 14
12 12 7 6 7 8 8 7 8 8 2 10 7 5 1 1 2 4 7 7 7 3 5 3 2 5 9 7 6 14 15 15 15 15 13 11 12 11 14 18 17 18 15 16 20 19 19 18 18 18 15 14 12 10 10 9 10 12 12 13 14 14 14 14 14 15 15 14 12 10 10 9 8 8 7 6 5 6 11 15 15 13 13 12 14 16 17 17 16 15 14 14 14 13 12 12 12
13 11 6 5 8 7 8 8 7 7 3 8 4 5 2 3 4 3 3 5 11 3 4 4 5 8 7 2 6 17 17 17 16 14 14 13 14 14 17 18 18 20 18 16 18 18 17 15 17 18 16 14 12 11 11 11 11 12 13 13 14 14 14 14 14 15 14 13 12 11 10 9 8 7 6 6 6 6 10 16 15 13 11 10 13 16 17 17 16 14 14 13 13 12 12 11 11
12 9 6 6 8 8 8 4 4 4 7 9 4 6 2 2 4 3 3 6 13 4 4 5 15 13 10 6 10 18 18 18 17 16 17 16 17 18 19 18 19 22 20 19 20 21 19 16 19 21 20 18 14 13 14 15 14 14 14 14 15 15 14 14 13 13 13 12 11 10 9 8 7 7 6 6 7 6 9 13 15 14 11 10 12 15 17 17 15 14 14 13 12 12 11 11 10
10 6 6 7 7 9 4 6 7 5 9 8 6 7 3 2 4 5 4 8 10 5 6 12 20 15 14 12 15 17 18 19 18 17 19 19 18 19 21 18 18 21 21 23 24 23 21 18 21 25 25 24 21 18 18 18 17 16 16 15 15 15 14 13 12 12 11 11 10 10 9 8 8 8 8 8 8 8 8 10 12 13 12 11 12 14 17 17 16 14 13 12 11 10 9 9 9
10 5 6 8 8 7 5 7 6 7 7 4 5 3 1 2 5 5 7 8 5 7 9 18 22 15 14 14 15 15 18 18 18 17 18 20 19 20 21 17 16 19 20 24 26 23 21 20 23 27 25 24 23 22 21 20 19 18 18 17 17 15 14 13 12 12 11 10 10 10 10 10 10 10 10 9 9 9 8 8 9 11 11 12 12 13 16 17 16 14 12 11 10 9 9 8 7
11 9 6 10 9 5 6 4 5 6 4 5 3 3 2 5 6 2 7 8 5 12 7 20 22 16 13 12 14 15 17 17 17 17 17 17 18 19 19 18 18 20 20 23 24 22 23 22 24 26 25 23 23 24 24 22 20 19 19 18 18 17 15 14 13 12 11 11 11 13 13 13 13 12 11 11 11 10 10 9 9 9 9 10 12 13 14 16 15 14 13 12 11 10 9 6 5
10 10 8 11 7 6 4 4 5 5 6 6 4 3 3 7 5 3 8 8 7 7 6 23 24 19 17 14 14 15 16 17 18 18 16 15 16 17 17 18 18 19 21 23 23 22 23 24 25 26 26 25 24 26 26 24 22 21 20 19 19 18 17 16 15 14 13 13 14 14 14 15 15 14 13 13 12 11 11 11 9 7 7 8 10 12 13 15 14 13 13 11 11 11 8 5 5
8 9 13 16 11 8 4 3 4 5 7 7 8 8 7 8 5 5 10 10 5 14 22 23 22 19 17 16 15 14 16 17 18 18 17 16 16 16 18 18 16 17 20 23 24 23 23 23 25 27 27 27 26 27 26 25 24 23 21 20 20 19 19 18 17 17 16 15 15 15 15 15 16 14 13 14 12 11 11 11 9 7 6 6 8 11 13 14 14 13 12 10 9 9 8 7 8
8 9 14 17 14 11 7 3 2 4 7 9 9 9 8 8 5 9 11 12 9 13 22 18 19 17 15 16 16 15 17 18 19 18 18 19 17 17 17 17 17 18 20 24 26 25 24 24 26 27 28 29 28 27 26 26 24 23 22 22 21 20 20 19 18 17 17 16 16 15 16 16 16 14 14 13 11 11 12 10 10 9 7 5 5 8 10 11 14 14 12 10 8 6 5 6 9
10 9 11 15 13 12 12 7 3 3 8 9 9 9 8 8 7 11 11 11 12 7 19 15 16 16 14 16 15 17 18 19 20 19 19 19 18 18 17 16 17 18 22 25 27 28 27 26 28 28 29 29 28 27 27 26 24 23 23 23 23 21 20 19 18 18 17 17 17 17 17 17 16 15 16 13 10 11 11 10 9 9 8 5 7 7 7 9 12 12 10 9 6 5 4 5 6
12 11 12 14 12 10 12 11 6 8 10 9 10 9 10 12 10 14 10 8 13 3 17 15 15 14 14 13 13 16 18 18 19 18 18 17 17 17 17 17 16 18 23 23 24 28 28 27 28 28 29 30 28 27 27 26 26 25 22 22 23 21 20 20 18 17 17 18 19 18 18 17 16 16 17 14 11 10 10 10 11 10 10 9 9 11 12 10 9 10 8 8 6 6 8 6 5
10 13 14 14 13 11 11 11 10 11 10 10 11 10 13 14 11 14 11 12 17 4 12 14 14 13 12 12 12 13 16 17 17 17 16 16 16 16 17 17 16 19 21 18 20 26 27 26 27 29 30 30 28 27 27 27 27 25 21 22 22 22 21 19 17 17 18 19 20 19 18 18 16 16 16 14 12 12 12 12 12 10 12 13 13 15 15 9 8 8 7 6 6 8 10 8 9
7 11 14 13 14 14 13 12 11 11 10 10 11 10 13 13 11 10 11 20 20 7 7 9 12 12 10 10 11 12 15 16 16 16 16 15 15 16 17 15 16 19 18 16 18 23 25 25 27 30 30 29 28 26 25 26 25 23 22 23 23 22 21 18 17 18 19 19 19 18 18 18 17 16 16 16 16 16 16 14 11 10 12 15 15 14 12 9 9 9 8 8 7 5 5 6 7
10 10 10 11 13 14 15 13 12 10 8 11 13 12 12 12 12 8 14 23 15 9 6 11 16 12 9 8 10 12 15 15 15 15 16 15 14 15 15 15 16 18 17 15 17 20 24 25 27 29 28 26 27 25 25 25 23 21 21 23 22 20 19 18 18 19 19 18 19 18 18 19 18 17 17 17 17 17 16 15 13 14 14 14 12 10 9 10 10 9 10 10 8 7 5 5 4
14 12 9 10 12 13 15 15 15 11 9 13 12 10 11 12 13 12 20 20 10 10 8 21 18 11 10 9 11 13 14 14 15 15 16 15 14 14 14 14 15 15 15 14 15 17 20 25 27 27 27 27 27 26 27 26 22 19 20 22 21 18 17 16 16 17 18 18 19 19 19 20 19 18 18 17 17 16 15 16 16 15 13 11 9 9 9 9 9 9 10 9 8 9 6 5 5
12 11 8 9 10 10 15 16 16 13 11 11 6 6 8 10 16 17 21 19 12 12 11 21 17 16 15 13 12 13 13 13 15 14 15 16 16 15 14 14 12 12 14 13 15 16 19 26 27 27 28 29 27 26 28 27 22 19 20 21 19 16 15 15 14 15 16 17 18 18 17 19 20 19 17 17 17 15 14 17 15 12 11 10 9 8 8 8 8 9 9 8 9 10 8 6 7
8 9 8 7 7 9 15 16 14 12 11 9 5 4 8 12 17 20 22 22 15 12 13 16 18 19 17 15 14 14 13 15 16 16 16 17 17 14 14 16 14 13 13 13 16 19 24 28 27 28 29 28 26 25 27 27 21 19 21 20 17 15 15 15 15 15 16 17 17 17 16 18 21 19 17 17 15 13 14 13 12 11 11 11 10 9 8 8 7 7 8 8 9 9 7 7 6
6 7 7 7 7 10 11 14 13 10 9 10 7 6 9 13 14 21 25 21 15 11 14 15 19 19 17 17 15 14 14 17 19 19 17 17 16 13 14 15 15 15 13 13 18 22 24 26 27 27 26 25 24 22 24 23 20 19 20 18 15 14 15 14 14 15 16 16 16 16 16 18 20 18 18 18 13 13 16 14 13 13 12 12 11 10 9 7 7 7 8 8 7 7 7 7 6
7 7 7 8 9 7 5 13 14 11 8 10 10 8 8 10 9 13 19 13 13 10 14 14 21 19 16 15 14 13 13 15 17 18 16 15 14 12 12 12 11 13 14 15 19 22 21 22 24 25 23 23 23 21 20 20 21 20 19 17 14 14 14 13 14 16 15 15 16 16 16 18 19 17 18 20 16 14 16 16 15 14 13 13 11 11 9 8 8 8 9 9 8 8 7 6 6
6 7 7 9 11 9 6 12 14 14 9 8 11 8 10 14 8 6 14 9 9 12 12 14 21 19 18 15 13 13 12 13 15 16 15 14 14 11 10 11 10 12 15 15 17 22 20 19 22 23 22 23 21 20 19 21 22 20 18 15 13 13 13 14 15 15 14 15 16 16 17 17 18 18 17 18 18 16 17 17 16 15 14 13 11 11 9 8 9 10 10 9 9 10 7 6 7
8 10 7 8 10 10 6 10 12 11 9 7 10 9 11 15 8 4 11 10 11 14 13 15 21 21 22 18 11 10 11 13 15 15 14 14 13 11 11 12 11 13 15 14 16 21 20 18 20 21 21 22 20 19 20 22 22 19 17 15 14 14 14 16 16 13 14 15 16 15 16 17 16 16 16 16 18 17 16 16 16 15 14 12 11 11 10 10 11 11 10 9 9 10 8 7 8
13 10 8 8 7 8 8 7 11 8 8 8 9 9 10 12 10 5 7 12 14 13 14 14 20 22 22 18 13 12 12 12 15 16 15 16 14 11 13 12 11 14 15 16 16 19 21 19 20 21 20 21 19 20 22 21 21 20 17 15 15 15 14 15 14 12 13 15 16 16 16 17 15 14 14 15 18 18 15 13 14 14 13 11 10 10 11 12 11 10 9 8 9 9 7 6 7
16 11 6 9 9 9 11 8 12 8 5 6 7 8 9 11 12 11 10 12 13 13 12 14 16 23 24 21 19 21 18 15 16 19 18 16 14 12 15 15 12 13 15 17 16 17 20 19 21 21 20 21 19 20 21 19 20 19 17 15 15 15 13 12 11 11 14 15 15 16 15 15 15 13 14 15 17 17 14 13 13 12 11 10 9 10 11 11 10 9 9 7 8 7 6 6 7
14 11 8 10 10 6 8 7 12 12 5 4 7 9 10 11 11 12 13 12 12 11 12 13 15 19 22 23 26 28 24 20 20 22 19 15 14 13 15 15 13 12 15 17 17 17 18 18 20 20 20 19 17 17 17 15 16 16 17 16 14 13 12 10 9 10 14 14 15 16 14 13 13 13 13 15 17 15 13 12 11 9 10 10 10 11 12 12 10 9 9 8 7 8 8 8 8
10 7 8 9 7 5 6 6 7 9 5 4 7 9 10 12 12 13 13 11 14 13 14 13 16 17 18 19 25 32 28 25 25 22 18 16 16 16 15 14 12 12 15 17 19 19 18 17 18 17 17 16 14 14 13 11 11 11 13 10 7 9 10 9 9 11 14 15 15 16 14 13 13 12 11 11 13 14 12 10 9 8 10 11 11 13 13 13 11 10 10 8 7 8 9 9 8
7 6 8 8 8 7 6 7 6 4 3 1 5 10 8 11 10 10 11 11 15 18 15 16 18 20 20 19 19 33 36 30 28 24 21 19 18 17 15 13 11 12 15 18 21 22 18 18 16 14 13 12 11 12 11 9 8 7 5 4 4 5 7 10 12 13 15 15 15 15 13 12 12 10 10 10 10 12 11 10 9 9 9 10 12 12 12 11 10 9 9 8 7 7 7 7 7
7 8 10 9 10 11 10 8 7 5 3 2 5 9 7 9 11 9 9 10 13 19 20 17 19 19 19 20 17 28 39 33 30 29 26 20 18 20 18 15 13 14 18 20 22 21 18 17 15 12 12 10 9 10 10 10 8 5 3 4 6 4 6 11 13 13 15 15 14 14 12 11 11 9 8 8 8 9 10 9 9 9 9 9 10 10 10 9 8 9 9 9 8 8 8 7 6
7 10 13 14 14 14 13 12 8 7 6 8 10 8 6 9 13 13 11 11 13 16 19 16 17 18 18 20 15 26 35 33 33 30 26 24 22 23 22 20 21 22 22 22 21 20 18 16 14 13 12 10 10 11 11 10 9 7 7 8 8 8 9 12 13 14 15 14 12 12 12 11 12 9 6 6 8 8 8 9 9 9 8 8 9 8 8 8 8 9 9 9 9 10 9 6 6
7 9 12 15 16 16 16 14 10 7 6 5 8 7 6 6 9 12 11 13 16 15 16 16 14 15 14 15 13 25 33 32 30 28 26 27 27 26 27 26 28 27 24 23 23 23 20 15 13 14 12 10 11 12 11 12 12 11 12 11 11 13 12 12 14 14 15 13 12 12 12 10 10 9 7 7 9 8 8 9 8 8 7 7 8 8 7 7 8 8 7 7 8 8 7 6 6
7 9 12 15 16 16 16 14 9 7 7 8 10 9 7 6 6 10 11 11 13 10 13 14 12 14 14 15 15 15 29 34 32 30 29 28 27 27 28 29 31 28 23 23 23 22 21 18 16 15 12 11 11 11 13 15 16 15 14 12 13 15 14 14 15 14 14 13 12 12 11 10 10 7 7 8 9 7 8 8 8 8 7 7 7 6 7 8 9 8 8 8 9 8 7 7 6
8 12 13 10 11 10 11 11 8 7 8 8 10 10 8 7 7 9 12 11 10 9 9 7 8 13 13 12 9 3 18 33 30 30 29 26 26 27 28 31 30 25 22 21 17 19 22 21 19 15 11 11 12 12 13 15 18 18 16 14 14 16 16 15 15 14 15 13 12 12 11 10 8 6 7 9 8 7 7 8 8 7 6 6 7 6 7 8 8 9 9 9 9 8 8 8 6
10 14 10 5 8 8 7 8 8 7 9 9 10 11 8 7 6 6 8 6 3 3 3 5 5 5 10 8 11 11 14 26 21 24 28 25 25 27 29 32 27 22 22 18 16 15 16 18 19 15 12 12 14 15 15 17 20 19 17 16 17 18 18 17 16 16 15 14 13 13 11 10 9 8 9 9 7 7 7 7 7 7 6 6 7 6 6 7 7 8 8 8 7 7 8 9 7
10 12 9 6 7 7 7 7 7 7 8 10 12 13 10 8 4 0 0 1 5 5 4 7 9 8 12 13 14 12 7 19 17 20 23 24 26 27 28 28 21 19 20 17 18 15 16 18 18 16 16 17 17 17 17 19 21 19 18 18 19 21 21 19 18 18 17 15 14 13 12 11 11 11 10 9 9 8 7 7 7 7 7 7 7 6 6 6 6 6 6 7 6 6 7 8 7
8 7 6 5 5 6 7 6 7 7 8 10 13 15 13 10 2 4 5 5 7 6 4 4 7 8 10 9 11 14 4 9 13 13 14 20 27 27 24 20 10 8 11 17 18 13 17 21 20 19 19 18 19 21 20 21 23 22 19 20 21 23 23 22 21 20 18 17 15 13 13 12 11 11 11 11 11 9 8 8 8 8 8 8 8 6 6 6 5 5 5 5 5 6 6 7 7
7 7 6 6 5 6 6 6 6 7 8 9 12 13 10 5 3 7 6 5 7 8 6 5 6 5 8 7 7 6 2 6 10 11 9 15 23 22 18 15 9 7 14 17 14 17 21 23 21 21 19 15 18 22 23 24 26 26 23 23 24 25 24 24 23 21 19 19 17 14 14 13 11 10 10 11 12 10 9 9 8 6 6 7 7 6 6 5 4 5 4 4 4 4 5 6 7
9 8 7 7 6 6 6 6 6 7 8 9 12 13 7 3 6 7 5 5 7 8 8 7 6 2 3 4 3 5 7 3 2 4 7 12 17 17 13 13 11 9 9 9 18 23 26 26 24 23 19 15 18 21 24 26 28 28 26 26 27 26 25 25 23 21 20 19 18 16 15 13 11 11 9 8 9 8 6 7 7 6 4 5 6 6 6 4 4 4 4 3 3 3 4 5 6
10 9 8 8 6 6 6 5 6 5 4 6 9 9 4 2 2 2 5 7 8 8 7 6 4 2 1 2 4 9 9 6 4 5 7 8 9 9 8 7 7 10 9 13 19 20 24 28 27 24 21 19 21 22 25 28 29 28 27 28 28 26 26 25 23 21 20 19 19 17 15 14 13 12 11 9 8 8 8 8 8 9 8 6 5 6 6 5 4 4 4 4 4 4 4 4 5
8 8 9 8 7 7 5 5 6 2 2 5 5 3 3 4 3 2 6 7 7 5 4 4 4 5 5 6 8 10 11 10 4 5 6 5 5 5 6 6 9 15 16 16 15 16 21 25 24 22 21 22 24 24 26 27 28 29 28 28 28 27 26 26 24 23 21 19 19 17 15 13 12 11 12 13 10 9 9 8 8 9 8 6 5 5 5 6 5 5 4 4 4 4 4 4 4
5 8 10 8 10 9 5 6 6 2 3 5 5 3 5 7 3 4 5 4 4 3 3 4 4 6 7 9 9 9 11 13 7 1 4 5 5 6 5 8 14 17 15 12 11 13 18 19 19 18 16 19 23 24 25 27 29 31 30 28 28 27 27 26 25 24 22 19 18 17 14 13 10 10 11 11 11 11 8 7 8 9 8 8 6 5 5 6 6 6 4 4 5 4 4 4 4
6 6 8 8 10 9 5 5 5 5 6 5 6 8 4 5 2 3 5 4 4 2 2 4 4 6 7 7 9 10 11 12 10 6 4 3 2 3 1 7 12 12 10 8 7 8 9 8 10 13 13 15 20 22 24 27 29 30 30 30 29 28 28 26 24 23 21 19 17 16 15 13 11 11 11 10 11 12 10 8 8 8 10 9 7 6 5 5 6 6 5 5 5 5 5 5 5
11 7 6 6 7 7 5 4 5 6 6 4 7 8 1 2 0 3 4 3 4 3 4 5 7 10 10 9 11 12 11 11 12 11 9 6 4 6 7 5 6 8 9 9 6 4 5 5 5 7 11 14 16 19 23 27 29 30 31 30 29 28 27 26 24 23 21 18 18 17 16 13 12 12 13 12 12 12 12 10 7 6 10 10 8 7 5 5 6 6 5 5 5 6 6 5 5
13 10 8 6 5 5 5 4 5 6 5 4 8 6 1 2 4 1 2 3 2 3 6 6 9 13 14 13 12 11 11 11 12 12 12 11 9 6 8 9 8 7 8 9 8 6 6 8 8 9 10 11 14 17 23 27 28 29 30 31 29 27 27 26 25 24 21 19 19 19 17 15 15 14 14 13 12 11 11 9 5 6 10 9 8 8 5 6 6 5 5 4 4 5 5 5 7
10 9 9 7 5 4 4 3 3 6 5 4 6 3 2 0 3 3 2 3 3 5 6 6 8 11 10 12 13 13 13 14 14 14 12 12 11 8 8 9 8 8 8 8 8 7 8 9 10 12 12 11 14 17 22 27 27 27 29 30 30 27 27 26 25 24 22 20 19 19 19 18 17 16 14 13 12 10 9 8 4 5 8 8 9 8 6 6 7 6 5 3 4 6 4 4 8
9 9 9 9 7 6 6 5 3 5 5 4 4 1 2 2 3 2 2 4 5 7 7 7 11 12 11 14 16 17 18 18 17 16 13 13 13 12 11 9 7 6 7 7 6 8 10 11 11 13 15 15 17 19 22 26 25 27 29 30 29 27 26 26 25 24 23 20 18 18 19 19 16 15 15 14 12 10 9 7 4 5 7 8 9 8 7 8 8 6 5 4 4 6 6 5 7
Wind_Direction
166 184 176 167 140 6 268 230 238 222 219 259 248 254 249 255 309 250 144 83 26 41 56 27 3 346 293 307 307 19 53 51 40 41 85 131 136 138 144 154 177 169 163 168 167 164 159 158 155 154 154 154 157 158 160 161 162 160 160 159 156 153 147 144 141 142 141 137 134 130 131 133 137 143 149 148 144 139 135 132 128 125 121 118 111 108 109 108 106 102 100 98 100 100 101 99 98
145 137 198 169 228 265 253 215 239 250 214 248 245 251 248 222 284 261 350 64 77 56 50 1 325 295 268 293 282 305 65 67 72 84 103 123 128 132 150 159 169 171 168 167 166 164 160 158 155 156 155 155 158 160 161 164 165 164 164 163 161 157 151 147 144 144 143 141 138 133 130 130 134 141 149 148 145 143 142 137 132 130 126 121 114 112 113 112 110 106 103 102 101 102 103 104 103
157 165 238 256 237 242 259 229 232 260 235 246 253 240 205 171 64 50 37 46 57 40 27 315 283 273 244 229 245 85 75 73 78 96 116 128 138 140 153 158 164 185 173 167 167 164 161 157 157 158 156 157 158 161 164 166 168 167 168 167 165 160 156 153 149 148 146 145 143 137 132 130 133 140 147 148 151 149 146 141 136 135 129 126 120 116 116 114 112 109 107 105 104 104 105 106 107
188 163 200 241 233 227 244 244 230 254 255 255 266 75 87 70 61 55 46 36 12 337 305 295 275 243 266 267 58 69 79 71 70 100 126 139 153 149 153 152 160 181 169 166 168 165 163 157 157 158 157 157 159 163 165 168 170 170 172 171 168 164 161 158 154 151 150 149 146 140 134 136 140 145 150 150 153 152 147 143 140 136 133 132 127 121 120 118 114 112 110 109 108 106 105 106 108
180 151 215 240 240 244 240 248 236 244 250 261 271 68 48 46 64 50 43 28 325 293 271 279 269 182 59 46 53 60 76 71 72 97 123 136 152 156 157 152 157 169 163 164 168 165 162 157 155 158 157 157 159 162 165 170 172 173 176 173 172 168 166 163 158 156 155 152 148 144 141 143 147 150 155 156 155 154 150 146 142 136 137 138 135 129 126 124 118 116 114 113 112 109 107 107 108
156 159 246 234 254 287 280 250 237 241 241 257 274 74 66 54 56 41 349 300 251 278 252 252 261 165 86 69 68 69 66 66 89 108 125 138 151 159 159 154 153 154 154 160 171 166 159 156 154 156 157 157 159 162 165 170 173 176 177 176 175 172 170 167 162 161 158 154 151 149 147 147 149 151 155 161 161 159 155 151 145 139 141 142 140 136 133 131 125 121 119 117 115 112 110 109 110
170 241 218 217 253 266 260 251 245 249 235 240 262 64 80 67 51 18 321 313 101 245 225 235 261 130 105 108 77 65 74 82 110 127 141 151 157 156 150 152 150 148 149 151 169 168 157 154 153 156 156 156 158 161 165 169 173 176 178 179 178 176 174 171 167 163 162 160 156 154 154 151 150 154 161 165 166 168 161 156 150 142 142 142 141 140 139 138 132 126 122 120 118 116 114 114 115
233 253 227 218 241 231 238 250 251 257 252 244 268 60 80 55 48 307 330 320 333 284 191 203 252 254 105 107 90 70 81 89 113 137 165 162 159 152 147 149 145 147 151 153 169 167 155 153 154 155 154 155 157 160 163 167 172 176 180 181 180 179 177 175 171 165 166 165 163 162 160 155 151 156 167 171 168 170 166 161 156 146 143 143 142 142 145 142 134 129 125 124 122 120 118 118 118
236 243 245 238 239 243 239 245 249 254 259 254 18 65 78 7 23 276 303 271 280 285 219 195 224 186 102 94 97 95 91 106 123 146 167 157 155 151 148 146 143 144 150 158 167 161 154 153 155 154 154 155 156 158 160 163 169 175 179 181 182 181 178 176 171 168 169 169 169 167 163 158 153 157 166 174 169 165 168 165 158 151 146 143 142 145 147 141 135 131 128 127 125 124 121 121 121
227 227 242 247 246 252 243 246 244 247 248 167 89 80 68 10 348 284 281 271 285 289 243 188 246 144 114 102 100 100 108 125 137 149 154 155 155 148 146 146 145 143 147 158 162 160 155 153 156 155 156 155 154 153 155 159 165 172 175 179 181 180 179 175 173 173 174 173 172 166 159 153 153 161 167 179 181 168 174 170 160 157 151 147 149 149 146 140 137 134 131 130 128 126 124 123 123
226 220 233 257 251 248 251 248 240 238 226 106 88 92 67 8 342 289 260 270 271 266 257 170 243 129 112 99 102 116 123 129 146 152 154 162 155 144 147 145 146 147 155 166 165 162 155 154 158 157 158 155 153 151 152 157 161 167 170 175 179 180 180 176 178 177 176 172 166 160 154 150 154 162 164 174 189 180 176 172 165 164 159 157 158 151 145 143 141 137 134 132 131 130 128 128 127
238 220 216 245 250 249 259 255 258 244 149 107 162 97 75 295 347 288 277 289 273 248 220 206 200 121 108 90 110 133 131 138 154 157 163 159 150 149 145 140 146 157 166 169 160 159 155 155 156 156 159 156 153 151 153 155 157 163 167 173 176 179 179 177 178 176 171 163 157 157 155 154 157 162 160 163 182 183 174 174 171 169 168 166 162 153 149 148 146 143 139 136 135 133 133 132 132
239 245 227 240 252 261 267 267 282 286 103 97 121 102 86 290 41 310 322 315 282 255 242 249 105 102 100 95 115 140 139 149 158 162 164 154 149 143 133 137 150 157 164 161 155 157 157 157 157 156 159 157 154 152 153 154 156 163 167 171 173 175 176 176 175 171 165 159 154 157 160 158 162 166 157 156 173 182 175 178 179 173 177 175 162 155 155 153 150 149 144 141 138 136 135 134 134
234 250 254 261 264 266 270 273 285 286 5 81 91 109 140 293 46 304 294 283 261 242 2 22 78 95 113 117 130 163 156 154 160 161 156 147 137 128 139 151 147 143 146 153 154 158 157 157 158 156 156 154 152 153 155 154 158 164 168 169 170 172 172 171 169 165 161 159 157 159 162 161 168 169 157 160 170 181 179 180 184 178 185 182 162 159 160 157 156 154 149 146 141 138 136 130 129
241 252 260 274 271 264 266 265 274 283 68 91 89 93 176 266 83 276 265 272 290 10 356 315 61 79 130 142 164 173 162 153 167 167 150 140 131 135 154 149 138 133 137 153 158 157 153 154 156 154 156 154 149 152 153 155 161 163 165 167 168 170 168 168 166 162 160 161 165 164 168 169 171 164 156 163 167 180 178 180 186 184 190 182 165 165 164 163 162 159 155 151 144 141 137 129 125
243 259 269 261 261 260 259 248 248 263 83 90 86 77 292 273 89 295 299 289 293 324 253 258 63 72 113 138 169 163 155 151 170 168 155 153 148 151 152 146 143 140 143 153 155 152 152 161 160 154 156 152 147 150 150 154 160 158 162 166 168 170 167 167 164 163 165 166 170 169 171 174 169 163 161 164 169 177 174 178 186 189 193 182 172 170 168 168 166 165 164 156 148 144 139 133 128
237 252 263 254 253 247 249 265 266 238 101 89 65 57 313 281 77 308 337 264 267 265 208 88 73 78 85 96 141 147 147 155 172 167 158 158 155 155 153 153 150 147 148 147 151 156 161 171 170 167 166 163 164 167 163 157 155 154 160 166 168 171 169 167 166 167 171 171 169 168 172 176 170 171 175 174 178 182 176 180 189 194 194 187 179 173 172 172 170 170 169 162 155 148 143 140 137
237 233 244 248 241 238 263 23 354 10 75 77 58 40 325 340 25 337 326 241 236 251 208 104 85 81 80 111 138 144 150 162 177 172 162 158 161 162 156 154 150 154 159 157 161 165 170 175 172 174 174 176 180 182 174 157 152 155 160 166 168 172 171 168 170 172 176 177 170 167 175 179 179 186 191 188 190 191 184 184 192 198 197 196 186 177 176 175 175 175 171 166 157 149 147 143 141
236 235 236 243 242 260 354 26 348 17 50 33 54 64 335 352 345 333 311 279 234 250 207 113 97 100 98 121 139 149 157 166 178 171 167 166 168 166 156 152 156 168 171 170 170 170 180 181 174 175 176 180 182 180 169 155 154 158 163 167 169 173 173 171 175 177 179 182 177 173 180 185 185 190 196 197 196 197 195 194 198 199 199 198 192 187 183 179 179 179 177 170 159 157 155 147 151
228 237 242 240 247 307 1 352 334 12 20 349 16 63 31 281 299 312 304 307 274 274 224 124 115 128 132 137 144 156 162 169 176 169 172 176 172 168 160 156 165 174 173 177 178 177 187 185 177 179 181 182 183 177 164 159 161 161 164 167 170 171 174 178 178 181 181 185 186 184 187 186 185 186 193 195 195 199 200 200 202 203 200 196 196 196 191 187 184 182 183 176 172 171 162 161 170
217 225 245 247 261 329 331 317 342 347 338 340 310 319 306 278 326 343 290 281 255 321 77 126 129 137 148 152 152 161 167 172 177 174 176 180 177 168 164 167 173 178 175 182 186 181 184 185 181 182 183 182 183 179 167 165 166 162 162 165 169 169 174 181 180 182 182 186 191 191 191 189 186 185 190 194 195 200 201 200 200 201 194 192 199 200 198 199 193 190 192 184 183 180 177 196 183
228 229 248 258 282 315 317 350 340 323 314 299 275 275 287 303 338 285 274 277 290 63 88 120 130 137 148 155 160 165 174 178 181 181 179 181 182 172 172 178 181 185 184 188 193 187 181 183 186 185 183 182 182 181 173 168 166 161 162 164 167 168 177 182 182 186 185 186 191 191 189 190 192 187 189 193 195 201 203 201 197 191 178 180 201 204 204 205 201 199 200 196 199 195 193 195 174
240 243 247 259 272 279 283 315 309 323 300 281 279 279 290 308 300 270 269 276 295 86 105 120 129 140 149 155 161 168 179 185 186 184 185 186 183 179 180 179 183 190 190 191 197 196 185 183 189 188 183 182 181 180 174 169 166 163 163 164 166 172 182 186 185 187 189 189 188 191 190 191 195 189 185 189 195 199 202 200 192 188 175 167 180 194 209 211 203 201 204 205 209 205 198 197 181
233 250 251 258 260 257 268 280 290 301 283 277 280 281 285 282 269 264 257 264 280 103 113 124 130 140 149 153 161 175 184 189 193 187 186 190 186 186 184 180 187 187 183 191 198 197 191 186 191 190 183 180 181 180 176 171 167 165 165 165 169 176 184 187 187 188 194 192 187 193 193 191 193 191 185 185 193 194 197 196 190 188 176 158 130 149 223 228 200 195 200 198 192 193 206 228 201
229 246 255 263 268 263 267 276 280 268 266 267 266 268 262 258 260 263 263 265 265 141 115 131 130 132 142 151 165 182 191 193 197 193 189 196 194 191 185 183 189 184 183 192 197 195 193 189 191 191 184 180 181 182 178 172 168 168 169 168 172 179 183 188 190 190 194 192 189 192 194 194 195 194 189 185 191 195 197 194 197 196 176 174 151 161 216 223 184 180 183 177 172 200 208 218 219
228 240 246 255 263 262 259 259 259 255 254 255 254 252 251 249 248 256 260 256 255 212 129 145 135 135 140 150 172 188 199 201 202 199 198 201 200 198 192 188 189 190 190 188 192 196 194 190 189 189 187 182 181 181 176 172 170 170 170 170 174 181 186 190 191 189 189 190 193 195 197 200 198 198 193 185 186 194 199 199 203 193 168 183 185 184 204 197 170 174 174 182 188 211 205 197 215
241 245 247 255 262 260 259 253 252 252 249 252 254 255 255 248 242 240 238 243 245 220 181 166 135 140 138 147 175 195 204 206 207 207 207 207 206 207 202 195 195 197 193 185 193 199 195 190 187 187 188 184 183 183 177 173 173 171 171 173 177 182 187 190 190 189 188 192 198 200 200 201 200 199 196 189 190 194 195 194 192 182 176 190 190 187 194 175 172 176 172 192 196 206 202 201 217
259 260 262 265 266 263 260 258 255 252 249 253 252 258 260 250 247 235 239 244 226 205 197 117 116 134 142 154 176 202 210 204 206 209 211 212 212 212 213 206 203 203 195 193 201 201 196 190 186 185 185 186 187 186 181 177 177 175 175 176 178 181 186 190 192 190 193 199 202 202 200 202 203 199 198 194 197 198 189 182 184 191 197 199 187 181 182 169 175 180 178 191 192 188 191 207 198
257 262 270 264 260 256 248 246 244 238 238 246 241 250 250 241 243 233 247 247 190 199 168 115 123 142 159 183 188 207 213 201 199 209 216 218 216 218 224 215 209 210 206 208 208 204 198 188 184 185 185 189 190 186 183 182 181 179 179 182 182 182 186 190 193 193 197 203 202 201 199 203 203 198 200 199 202 207 193 185 190 195 197 192 182 179 179 180 186 193 194 195 198 196 189 196 191
252 253 259 262 262 250 237 230 228 228 230 232 225 253 247 235 230 220 243 243 188 209 179 133 144 147 156 187 193 204 217 211 203 213 224 221 218 222 222 210 209 213 209 219 218 202 187 179 181 186 188 191 188 184 184 184 182 177 180 186 186 185 186 187 193 196 198 200 201 202 199 202 204 200 202 204 212 220 202 193 194 191 191 186 182 183 184 190 195 198 198 196 202 202 195 200 197
252 249 243 246 259 255 237 216 206 217 215 199 185 257 264 263 235 206 229 236 194 202 198 157 151 147 154 173 183 197 208 213 207 214 224 221 219 219 215 210 208 203 202 215 211 196 185 180 182 185 188 188 184 186 188 184 179 178 182 187 187 184 186 188 194 198 198 199 201 204 204 202 203 203 203 207 214 215 205 201 198 194 199 196 189 189 191 193 201 200 192 192 199 193 192 201 185
238 246 244 229 238 259 239 190 183 212 198 178 198 252 255 268 248 201 215 224 176 187 219 173 146 153 162 167 180 192 194 203 206 209 217 220 218 211 213 219 211 197 199 206 197 192 189 186 185 185 186 186 185 190 192 185 179 183 186 186 185 183 187 191 195 197 198 200 202 207 211 204 201 202 203 206 204 199 203 202 197 198 201 200 192 188 192 193 203 199 182 189 196 180 180 188 171
220 226 245 237 228 247 213 161 174 204 183 174 210 254 255 270 277 196 193 193 162 199 232 173 145 157 166 169 182 189 194 204 208 211 214 215 210 206 214 221 211 194 200 205 195 193 190 186 186 185 186 188 188 191 193 190 185 187 190 188 187 187 193 194 190 191 194 201 207 208 209 204 203 202 200 202 199 195 202 201 198 202 202 203 197 186 189 193 206 205 188 192 194 181 185 191 174
214 215 240 251 243 244 200 164 182 200 186 185 206 231 263 272 294 142 146 157 190 227 231 169 151 157 163 169 181 187 199 211 218 218 213 210 202 202 215 214 200 187 197 206 198 193 190 185 184 184 188 189 189 191 194 195 188 186 190 191 190 190 193 189 185 189 194 201 208 209 207 205 203 196 191 196 199 197 201 201 199 201 201 207 204 186 185 195 211 216 201 197 189 180 186 188 177
214 202 210 241 251 260 232 163 170 187 179 207 221 219 255 266 275 120 144 176 218 239 233 178 154 156 166 172 180 188 198 212 227 226 213 212 204 195 208 210 192 184 194 202 197 193 192 186 181 183 189 191 193 196 196 194 187 182 185 188 189 190 190 186 183 188 196 200 205 208 205 204 200 188 183 192 199 200 204 205 200 199 202 211 207 188 185 199 213 215 203 198 189 183 191 187 175
239 226 211 230 240 258 256 154 141 162 174 206 235 232 248 263 267 254 195 196 204 220 236 202 160 155 169 177 183 197 210 218 230 234 224 213 200 192 203 204 194 193 194 192 191 193 194 190 183 185 189 191 196 198 194 190 184 179 178 180 184 187 193 191 183 186 199 202 203 205 202 203 202 190 190 197 199 200 203 204 198 196 202 210 206 191 190 203 214 213 202 196 192 183 180 179 173
264 287 287 262 250 233 230 173 144 159 188 207 240 249 250 263 267 267 252 232 213 195 220 232 183 159 165 175 181 188 201 216 229 234 228 213 200 201 205 199 197 202 195 191 192 191 192 190 188 189 190 193 196 193 193 189 182 181 178 178 180 182 189 192 189 197 206 209 206 203 201 201 202 202 202 198 198 201 201 198 197 199 204 206 202 192 195 206 213 213 204 195 194 182 165 168 172
272 298 300 274 266 245 229 190 146 147 167 228 258 262 254 256 260 268 266 261 255 204 192 237 223 181 176 180 176 177 188 203 217 225 223 215 204 204 206 198 201 203 194 200 203 196 193 193 192 191 190 194 195 191 193 188 181 183 183 178 176 177 181 189 194 199 204 212 212 207 205 200 200 209 208 193 191 200 203 202 203 208 207 202 198 196 199 206 210 212 205 195 188 178 174 183 183
267 274 270 268 277 283 258 237 143 138 165 213 258 265 256 254 246 250 252 249 266 243 193 217 238 220 210 208 186 176 182 190 199 213 217 216 209 204 203 195 199 206 197 204 211 206 198 195 194 191 190 191 193 195 194 192 185 184 185 181 186 187 183 186 187 193 203 212 211 209 211 201 193 204 208 196 193 199 204 208 209 210 209 204 202 205 208 210 212 209 202 196 183 173 182 195 196
250 250 251 254 259 268 256 223 178 175 216 190 283 279 265 265 257 250 249 238 255 258 229 210 231 236 224 237 215 175 173 180 188 202 206 211 212 201 196 186 189 210 207 204 210 209 196 189 187 182 187 192 199 203 198 200 192 178 181 181 194 192 185 188 185 191 204 210 207 204 208 203 194 200 202 198 207 207 202 205 208 207 210 208 204 210 219 218 217 208 197 190 177 178 190 194 198
240 239 248 253 250 256 263 248 218 220 231 161 259 276 266 260 261 259 257 248 245 255 253 220 220 239 221 235 236 177 176 184 188 199 197 195 205 202 200 196 201 218 214 208 210 207 191 180 176 172 182 193 206 210 201 199 193 189 208 181 177 176 185 193 186 188 199 204 205 201 204 205 201 205 194 185 207 215 202 201 209 207 205 206 201 206 214 214 212 204 197 190 179 185 197 193 195
242 229 235 252 261 259 263 269 264 242 215 187 207 243 255 238 242 244 237 240 236 238 255 239 219 236 226 226 214 168 178 185 183 195 191 181 195 206 209 214 219 219 212 210 208 198 184 173 173 177 180 187 199 205 207 210 206 209 213 204 209 207 199 199 189 186 192 196 201 202 205 206 200 197 175 177 211 218 202 194 200 200 196 197 193 192 198 200 197 194 194 194 191 194 196 194 192
246 235 224 232 251 263 270 276 275 261 251 241 241 259 273 244 241 252 239 231 232 218 231 241 226 230 235 236 208 167 174 181 180 190 192 189 198 205 211 220 224 215 206 209 205 193 182 173 185 195 189 186 192 196 213 221 211 204 203 208 220 212 204 207 198 189 187 191 199 199 198 199 195 184 161 183 211 214 201 191 187 185 185 191 187 185 188 183 176 182 189 189 194 200 193 186 182
239 245 235 223 228 237 251 262 267 273 281 279 271 267 272 270 264 274 272 251 248 232 218 223 222 231 235 234 236 189 174 179 179 184 193 200 206 212 219 227 226 212 204 208 198 180 167 164 184 199 192 189 197 208 222 219 207 204 205 206 211 208 205 205 199 189 186 192 199 194 188 186 186 174 164 191 208 205 197 188 182 180 179 179 177 181 185 178 174 182 189 188 192 199 189 181 172
237 245 247 249 252 242 242 254 257 259 262 263 258 254 254 258 250 256 266 262 259 260 247 227 214 240 247 228 264 351 164 179 182 184 195 205 212 219 226 231 226 210 205 201 170 140 145 164 186 192 189 198 206 212 213 208 205 204 204 202 202 202 199 195 193 189 188 192 195 192 184 178 175 167 177 196 200 197 192 179 174 180 177 170 175 180 178 185 193 193 197 203 205 206 196 190 184
236 248 248 256 277 277 266 259 258 250 249 252 249 252 258 257 251 245 254 266 275 269 299 23 41 330 334 335 338 11 141 169 181 195 205 213 215 218 223 228 223 210 210 195 154 140 162 185 195 189 195 210 208 203 201 202 203 203 202 199 198 197 192 186 187 189 190 190 187 184 173 165 171 181 188 188 184 192 196 177 167 173 168 162 173 177 173 186 198 195 203 216 221 215 200 197 196
228 247 250 229 231 250 261 255 261 259 247 249 247 248 255 260 269 22 220 57 59 52 53 41 35 18 356 346 327 326 152 159 176 199 214 219 214 215 221 223 219 220 222 187 158 171 189 194 196 193 203 214 210 205 205 203 202 205 204 197 192 189 186 181 181 188 191 186 179 174 165 165 177 186 184 176 176 191 194 173 166 172 163 156 169 182 188 193 191 189 201 211 218 214 199 201 200
223 239 247 243 219 216 238 234 234 246 248 255 253 244 243 251 260 91 95 93 86 68 58 33 26 11 339 325 301 301 282 150 152 173 209 218 211 214 217 211 204 218 198 160 158 187 197 194 195 197 203 209 206 206 206 202 202 203 201 199 191 182 180 178 178 184 186 181 178 172 166 171 180 181 180 178 176 186 190 171 167 177 174 170 176 184 186 186 176 171 185 198 207 209 199 202 202
216 232 217 234 240 214 224 226 219 234 244 249 256 255 247 245 66 83 81 65 73 74 70 55 48 16 318 289 261 297 33 114 117 134 178 206 208 212 212 210 206 158 135 145 186 219 204 192 190 191 196 200 200 204 203 198 200 199 196 199 193 183 180 178 177 181 180 178 177 170 165 168 175 179 183 188 183 186 190 174 166 177 182 180 179 173 166 165 160 151 155 181 193 203 201 196 201
205 223 208 212 233 227 222 224 228 242 247 246 254 258 244 136 80 75 76 63 64 68 70 67 77 113 290 286 284 32 50 37 56 134 186 205 211 212 212 226 220 175 139 176 216 216 199 191 189 191 197 199 196 200 199 195 198 197 192 193 191 185 182 178 178 179 179 179 170 161 162 164 175 180 176 191 192 180 172 160 154 151 149 164 173 170 162 158 159 148 145 168 178 187 200 195 199
202 214 227 222 226 241 238 227 236 250 279 285 266 257 247 148 145 108 71 61 61 63 64 65 74 105 6 9 25 43 44 10 316 242 227 223 225 222 224 245 223 196 203 211 207 198 191 192 195 200 207 204 198 197 196 195 196 193 188 191 191 187 182 178 178 177 179 180 165 156 163 171 186 188 179 189 184 164 168 162 155 162 164 165 176 177 171 169 165 149 151 168 170 171 185 192 195
202 206 228 231 229 243 253 254 255 252 313 303 279 269 76 103 143 100 58 49 49 53 60 63 51 43 43 47 50 58 61 50 15 269 264 266 278 289 275 254 224 215 212 207 204 191 188 194 201 208 209 204 201 200 195 192 192 190 190 192 189 184 181 178 177 177 180 178 164 160 168 178 191 192 188 195 183 176 190 180 174 190 184 169 182 184 173 172 164 154 160 162 165 177 174 172 184
208 213 223 230 234 239 244 252 254 228 244 260 250 234 117 120 113 66 75 75 65 47 45 55 53 54 54 53 53 55 62 67 70 9 325 327 336 339 298 241 227 225 215 212 222 203 187 191 198 199 197 200 204 203 196 190 189 191 192 191 185 181 182 178 176 176 175 169 162 164 170 176 183 183 188 193 183 181 184 175 191 199 181 176 184 173 166 170 161 162 168 156 163 179 160 155 171
232 226 223 221 227 238 248 247 240 227 237 246 238 234 173 137 149 109 123 116 101 106 76 61 58 67 63 59 64 55 47 59 69 67 37 354 9 68 208 229 229 226 204 191 213 209 191 188 190 186 187 200 208 207 199 192 190 190 190 186 181 181 181 177 174 174 173 167 161 164 172 177 176 177 182 180 176 174 159 165 200 189 172 181 173 153 163 160 152 168 178 162 166 175 167 167 168
237 245 238 231 225 225 226 231 241 240 240 248 242 238 174 52 294 141 142 120 99 88 65 49 30 35 30 26 53 58 49 52 49 39 39 37 57 114 136 165 196 201 184 169 174 192 187 181 190 191 193 203 214 210 198 192 190 188 187 184 181 181 179 174 172 172 174 171 166 167 174 177 175 178 183 177 172 171 162 173 205 175 161 172 157 144 150 145 150 174 177 167 169 172 172 166 160
231 243 238 243 247 235 228 217 229 243 243 248 246 237 85 348 317 20 115 110 103 75 66 54 35 34 20 9 28 53 65 70 57 44 43 45 54 96 131 143 159 177 176 170 176 180 174 182 192 193 194 208 225 217 198 192 190 186 186 184 179 177 175 172 169 169 170 168 169 173 173 175 177 178 180 175 168 170 166 171 192 156 154 163 150 136 140 144 135 123 131 152 164 158 169 165 158
213 229 229 230 235 244 255 227 221 247 248 249 256 245 120 198 307 339 65 79 72 79 80 73 65 60 40 23 28 38 50 57 61 62 59 51 55 77 107 125 150 171 169 167 182 187 180 184 186 184 184 199 224 223 202 193 190 186 184 180 176 174 171 168 166 167 166 164 169 175 173 175 181 179 174 166 164 168 165 166 168 136 144 151 141 136 142 129 110 108 124 140 140 141 169 185 161
210 214 221 226 226 229 238 226 215 252 259 264 264 249 90 61 349 352 66 70 59 69 80 77 71 68 56 44 38 33 34 36 40 50 56 53 53 60 76 94 121 156 166 172 188 192 191 188 183 189 192 197 212 214 201 197 195 186 180 175 171 171 169 166 165 165 161 160 171 179 176 176 179 177 167 156 163 168 158 159 154 130 140 143 138 140 129 114 122 136 124 103 126 150 177 188 159